Date String (YYYY-MM-DD hh:mm:ss) UTC,Instrument flags,Ambient pressure (hPa),Sample flow (lpm),Bypass flow (lpm),Sample temperature (°C),Ambient temperature (°C),ASC tube jacket temperature (°C),LED temperature (°C),Box temperature (°C),Sample RH (%),Span deviation,Mass concentration (μg/m³),Mass concentration (μg/m³),Mass concentration (μg/m³)
DateTimeUTC,F1_M11,P_M11,Q1_M11,Q2_M11,T1_M11,T2_M11,T3_M11,T4_M11,T5_M11,U1_M11,ZSPAN_M11,X0_M11,X2_M11,X1_M11
2021-12-29 10:00:00,,0811.0,5.01,0.00,22.7,22.7,00.0,31.6,24.5,05.9,0000.0,0011.05,0003.17,0001.18
2021-12-29 10:01:00,,0811.0,4.99,0.00,22.7,22.5,00.0,31.6,24.4,05.9,0000.0,0010.23,0003.10,0001.18
2021-12-29 10:02:00,,0811.0,4.99,0.00,22.6,22.3,00.0,31.6,24.3,05.9,0000.0,0010.98,0003.04,0001.18
2021-12-29 10:03:00,,0811.0,5.00,0.00,22.6,22.2,00.0,31.6,24.3,06.0,0000.0,0011.98,0003.03,0001.18
2021-12-29 10:04:00,,0811.0,5.01,0.00,22.6,22.0,00.0,31.6,24.3,06.0,0000.0,0012.27,0002.98,0001.18
2021-12-29 10:05:00,,0811.0,4.99,0.00,22.6,21.9,00.0,31.6,24.2,06.0,0000.0,0013.27,0003.09,0001.16
2021-12-29 10:06:00,,0810.9,4.98,0.00,22.5,21.8,00.0,31.5,24.2,06.0,0000.0,0013.23,0003.07,0001.16
2021-12-29 10:07:00,,0811.0,5.02,0.00,22.5,21.8,00.0,31.5,24.1,06.0,0000.0,0013.84,0003.05,0001.17
2021-12-29 10:08:00,,0811.0,4.99,0.00,22.5,21.7,00.0,31.5,24.1,06.0,0000.0,0013.69,0003.10,0001.16
2021-12-29 10:09:00,,0810.9,4.99,0.00,22.4,21.6,00.0,31.5,24.0,06.0,0000.0,0013.46,0003.09,0001.16
2021-12-29 10:10:00,,0811.0,5.01,0.00,22.4,21.6,00.0,31.5,24.0,06.0,0000.0,0013.71,0003.07,0001.18
2021-12-29 10:11:00,,0811.0,5.00,0.00,22.4,21.7,00.0,31.5,24.0,06.0,0000.0,0015.08,0003.10,0001.18
2021-12-29 10:12:00,,0811.0,5.00,0.00,22.5,22.4,00.0,31.5,24.2,06.0,0000.0,0015.69,0003.09,0001.19
2021-12-29 10:13:00,,0811.1,5.00,0.00,22.6,23.1,00.0,31.6,24.5,05.9,0000.0,0014.95,0003.04,0001.19
2021-12-29 10:14:00,,0811.1,4.99,0.00,22.7,23.3,00.0,31.6,24.7,05.9,0000.0,0013.84,0003.07,0001.19
2021-12-29 10:15:00,,0811.0,5.00,0.00,22.8,23.1,00.0,31.6,24.6,05.8,0000.0,0013.79,0003.13,0001.19
2021-12-29 10:16:00,,0811.0,5.02,0.00,22.8,22.8,00.0,31.6,24.5,05.8,0000.0,0012.87,0003.12,0001.19
2021-12-29 10:17:00,,0811.0,4.99,0.00,22.8,22.6,00.0,31.6,24.5,05.9,0000.0,0012.61,0003.15,0001.20
2021-12-29 10:18:00,,0811.0,5.00,0.00,22.7,22.4,00.0,31.6,24.4,05.9,0000.0,0012.02,0003.14,0001.21
2021-12-29 10:19:00,,0811.1,5.01,0.00,22.7,22.3,00.0,31.6,24.4,05.9,0000.0,0011.90,0003.12,0001.23
2021-12-29 10:20:00,,0811.0,4.99,0.00,22.7,22.1,00.0,31.6,24.3,05.9,0000.0,0012.23,0003.16,0001.23
2021-12-29 10:21:00,,0811.0,5.00,0.00,22.7,22.0,00.0,31.6,24.3,05.9,0000.0,0013.15,0003.22,0001.22
2021-12-29 10:22:00,,0811.0,5.00,0.00,22.6,21.9,00.0,31.6,24.2,05.9,0000.0,0012.28,0003.21,0001.21
2021-12-29 10:23:00,,0811.0,5.00,0.00,22.6,21.8,00.0,31.6,24.2,05.9,0000.0,0012.56,0003.24,0001.23
2021-12-29 10:24:00,,0811.0,5.00,0.00,22.6,21.8,00.0,31.6,24.2,06.0,0000.0,0013.18,0003.27,0001.25
2021-12-29 10:25:00,,0811.0,5.01,0.00,22.6,21.7,00.0,31.6,24.1,06.0,0000.0,0013.74,0003.31,0001.27
2021-12-29 10:26:00,,0811.1,4.98,0.00,22.5,21.6,00.0,31.5,24.1,06.0,0000.0,0014.32,0003.29,0001.27
2021-12-29 10:27:00,,0811.2,5.02,0.00,22.5,21.6,00.0,31.5,24.0,06.0,0000.0,0014.26,0003.26,0001.27
2021-12-29 10:28:00,,0811.2,4.99,0.00,22.5,22.0,00.0,31.6,24.1,06.0,0000.0,0014.19,0003.22,0001.26
2021-12-29 10:29:00,,0811.2,5.00,0.00,22.6,22.7,00.0,31.6,24.4,06.0,0000.0,0014.52,0003.24,0001.26
2021-12-29 10:30:00,,0811.2,5.00,0.00,22.7,23.4,00.0,31.6,24.7,05.9,0000.0,0014.63,0003.27,0001.25
2021-12-29 10:31:00,,0811.1,4.99,0.00,22.8,23.2,00.0,31.6,24.7,05.9,0000.0,0015.20,0003.28,0001.25
2021-12-29 10:32:00,,0811.2,5.00,0.00,22.8,23.0,00.0,31.7,24.6,05.8,0000.0,0014.47,0003.27,0001.25
2021-12-29 10:33:00,,0811.2,5.00,0.00,22.8,22.7,00.0,31.7,24.6,05.8,0000.0,0014.87,0003.27,0001.26
2021-12-29 10:34:00,,0811.2,5.00,0.00,22.8,22.5,00.0,31.7,24.5,05.8,0000.0,0014.42,0003.25,0001.25
2021-12-29 10:35:00,,0811.1,5.01,0.00,22.8,22.4,00.0,31.7,24.4,05.8,0000.0,0014.34,0003.28,0001.24
2021-12-29 10:36:00,,0811.2,5.00,0.00,22.7,22.2,00.0,31.7,24.4,05.8,0000.0,0013.83,0003.26,0001.21
2021-12-29 10:37:00,,0811.2,5.01,0.00,22.7,22.1,00.0,31.7,24.3,05.8,0000.0,0013.46,0003.29,0001.22
2021-12-29 10:38:00,,0811.2,4.99,0.00,22.7,22.0,00.0,31.7,24.3,05.9,0000.0,0013.42,0003.28,0001.22
2021-12-29 10:39:00,,0811.1,5.01,0.00,22.6,21.9,00.0,31.6,24.3,05.9,0000.0,0013.57,0003.31,0001.21
2021-12-29 10:40:00,,0811.1,5.00,0.00,22.6,21.8,00.0,31.6,24.2,05.9,0000.0,0012.50,0003.28,0001.20
2021-12-29 10:41:00,,0811.2,5.01,0.00,22.6,21.7,00.0,31.6,24.2,05.9,0000.0,0012.94,0003.30,0001.20
2021-12-29 10:42:00,,0811.1,4.99,0.00,22.5,21.7,00.0,31.6,24.1,05.9,0000.0,0013.46,0003.29,0001.21
2021-12-29 10:43:00,,0811.2,5.00,0.00,22.5,21.6,00.0,31.6,24.1,05.9,0000.0,0013.36,0003.28,0001.20
2021-12-29 10:44:00,,0811.2,5.00,0.00,22.5,22.0,00.0,31.6,24.2,05.9,0000.0,0012.85,0003.24,0001.20
2021-12-29 10:45:00,,0811.2,5.01,0.00,22.6,22.8,00.0,31.6,24.4,05.9,0000.0,0012.12,0003.27,0001.21
2021-12-29 10:46:00,,0811.2,5.00,0.00,22.8,23.3,00.0,31.6,24.7,05.8,0000.0,0011.72,0003.25,0001.22
2021-12-29 10:47:00,,0811.2,5.00,0.00,22.8,23.2,00.0,31.7,24.7,05.8,0000.0,0011.99,0003.24,0001.23
2021-12-29 10:48:00,,0811.2,5.00,0.00,22.8,23.0,00.0,31.7,24.6,05.8,0000.0,0012.31,0003.18,0001.23
2021-12-29 10:49:00,,0811.2,5.00,0.00,22.8,22.8,00.0,31.7,24.5,05.8,0000.0,0012.32,0003.18,0001.23
2021-12-29 10:50:00,,0811.2,4.99,0.00,22.8,22.5,00.0,31.7,24.4,05.8,0000.0,0012.88,0003.20,0001.25
2021-12-29 10:51:00,,0811.2,5.01,0.00,22.7,22.3,00.0,31.7,24.3,05.8,0000.0,0013.49,0003.25,0001.27
2021-12-29 10:52:00,,0811.2,5.00,0.00,22.7,22.1,00.0,31.7,24.3,05.9,0000.0,0013.28,0003.22,0001.27
2021-12-29 10:53:00,,0811.2,5.00,0.00,22.6,22.0,00.0,31.6,24.2,05.9,0000.0,0012.05,0003.21,0001.27
2021-12-29 10:54:00,,0811.2,5.01,0.00,22.6,21.9,00.0,31.6,24.2,05.9,0000.0,0011.97,0003.20,0001.29
2021-12-29 10:55:00,,0811.2,4.99,0.00,22.6,21.8,00.0,31.6,24.2,05.9,0000.0,0012.48,0003.29,0001.30
2021-12-29 10:56:00,,0811.2,4.99,0.00,22.6,21.7,00.0,31.6,24.2,05.9,0000.0,0013.03,0003.27,0001.30
2021-12-29 10:57:00,,0811.2,5.01,0.00,22.5,21.7,00.0,31.6,24.1,05.9,0000.0,0013.18,0003.25,0001.30
2021-12-29 10:58:00,,0811.1,4.99,0.00,22.5,21.6,00.0,31.6,24.1,05.9,0000.0,0013.10,0003.26,0001.29
2021-12-29 10:59:00,,0811.2,5.00,0.00,22.5,21.5,00.0,31.5,24.1,05.9,0000.0,0012.72,0003.29,0001.29
